COSMOS 2251 DEB

Satellite information

Favourite Embed

Satellite Type and Status

DEBRISIN ORBIT

Key statistics

Satellite COSMOS 2251 DEB at a glance.

Uptime

11868

Days in orbit

Revolutions

≈ 14.6

Per day

Orbit

LEO

Low Earth Orbit

Inclination

74.0

Latest

Satellite identification and parameters

Extended collection of information and parameters for COSMOS 2251 DEB.

Object identification

Identified? True

Debris? True

Object name: COSMOS 2251 DEB

International designator: 1993-036AQM

Object number (NORAD): 35716

Object ID (CCSDS): 35716

Country: COMMONWEALTH OF INDEPENDENT STATES (CIS)

Current information (Y/N): Y

RCS size: SMALL

Orbital parameters

Period: 98.625 minutes

Inclination: 73.9924 deg

SMA: 7071.042 km

Apoapsis: 755.579 km

Periapsis: 630.234 km

RAAN: 197.6138 deg

Eccentricy: 0.0088633

Argument of periapsis: 39.0207 deg

Mean anomaly: 26.7611 deg

Mean motion: 14.60083428 rev/day

Mean motion (dot): 0.00000771 rev/day2

B* drag term: 0.00015815 1/REarth

Two-line elements (TLE)

Creation date: Dec. 11, 2025, 7:36 a.m.

Reference frame: TEME

Reference center: EARTH

Epoch: Dec. 10, 2025, 10:58 p.m. UTC

TLE line 0: 0 COSMOS 2251 DEB

TLE line 1: 1 35716U 93036AQM 25344.95734119 .00000771 00000-0 15815-3 0 9998

TLE line 2: 2 35716 73.9924 197.6138 0088633 39.0207 26.7611 14.60083428876013

Live tracking on map

Real-time ground track for satellite COSMOS 2251 DEB.

In-orbit conjunctions

A list of the most updated potential collisions computed for object COSMOS 2251 DEB.

Target Orbit TCA Probability of collision Miss distance Type
CZ-6A DEB SSO 2025-08-04 06:04:15 0.0008142489 20.0 (m) DEBRIS
FENGYUN 1C DEB SSO 2025-03-28 18:20:55 0.0002397983 227.0 (m) DEBRIS

Associated space launch

Military communications satellite. Destroyed in a collision with Iridium 33.

COSMOS 2251 DEB was lifted into orbit during the mission ‘Kosmos-3M | Strela-2M 51’, on board a Kosmos-3M space rocket.

The launch took place on June 16, 1993, 4:17 a.m. from 132/1 (132L).

For more information about the launch, click the button.

Launch to space Kosmos-3M | Strela-2M 51
Kosmos-3M | Strela-2M 51

Agency: N/A

Status: Launch Successful

Launch date: June 16, 1993, 4:17 a.m. UTC

Rocket: Kosmos-3M

Launch pad: 132/1 (132L)

Location: Plesetsk Cosmodrome, Russian Federation

...

Latest news about this satellite

There are no fresh news available about this satellite. Check back as we update our databases every day.


Newsletter sign-up

Weekly statistics, charts and insights to help you stay on top of the space industry.